Вернуться в каталог

FENGYUN 1C DEB

АктивенPO
NORAD 29860·DEBRIS·🇨🇳 China

Запущен May 10, 1999 с Taiyuan Satellite Launch Center

Loading…

Ближайшие Пролёты (ближайшие 24 часа)

TLE

СвежийSource: Space-Track

Эпоха: Sep 13, 2026, 14:23 UTC

1 29860U 99025FE  26256.59932750  .00001669  00000-0  14083-2 0  9991
2 29860  98.6004 270.2600 0217160 322.8530 160.3867 13.78816684979256

Отслеживайте FENGYUN 1C DEB в реальном времени с AllMySat

Download on the App Store